Tracking 28520 objects as of 1-Mar-2024
HD Live streaming from Space Station
objects crossing your sky now

ARIANE 5 R/B

Track ARIANE 5 R/B now!


NORAD ID: 41593
Int'l Code: 2016-039C
Perigee: 258.7 km
Apogee: 34,285.2 km
Inclination: 6.2 °
Period: 603.0 minutes
Semi major axis: 23642 km
RCS: Unknown
Launch date: June 18, 2016
Source: France (FR)
Launch site: FRENCH GUIANA (FRGUI)

Note: This is a ROCKET BODY
Your satellite tracking list
Your tracking list is empty




NASA's NSSDC Master Catalog

Two Line Element Set (TLE):
1 41593U 16039C   24060.28571409  .00006019  00000-0  16666-2 0  9992
2 41593   6.1705 310.5570 7195907   8.3166 359.1488  2.38809028 65331
Source of the keplerian elements: AFSPC